• Processing (Info)

  • MPEC 2013-Y62 : 2013 YC38

    The following Minor Planet Electronic Circular may be linked-to from your own Web pages, but must not otherwise be redistributed electronically.

    A form allowing access to any MPEC is at the bottom of this page.


    Read MPEC 2013-Y61 Read MPEC 2013-Y63


    M.P.E.C. 2013-Y62                                Issued 2013 Dec. 30, 13:03 UT
    
         The Minor Planet Electronic Circulars contain information on unusual
             minor planets and routine data on comets.  They are published
       on behalf of Commission 20 of the International Astronomical Union by the
              Minor Planet Center, Smithsonian Astrophysical Observatory,
                              Cambridge, MA 02138, U.S.A.
    
                 Prepared using the Tamkin Foundation Computer Network
    
                                  MPC@CFA.HARVARD.EDU
                URL http://www.minorplanetcenter.net/    ISSN 1523-6714
    
                                       2013 YC38
    
    Observations:
         K13Y38C* C2013 12 27.44072 08 38 32.24 +16 19 06.5          21.1 VoEY062691
         K13Y38C  C2013 12 27.45846 08 38 33.21 +16 19 46.5          20.7 VoEY062691
         K13Y38C  C2013 12 27.47622 08 38 34.16 +16 20 25.5          20.5 VoEY062691
         K13Y38C KC2013 12 27.53350 08 38 37.38 +16 22 31.6          20.2 RoEY062291
         K13Y38C KC2013 12 27.53540 08 38 37.48 +16 22 36.2          20.0 RoEY062291
         K13Y38C KC2013 12 27.53729 08 38 37.59 +16 22 40.0          20.0 RoEY062291
         K13Y38C KC2013 12 28.01704 08 39 12.69 +16 40 25.6                qEY062J95
         K13Y38C KC2013 12 28.03654 08 39 13.79 +16 41 09.6                qEY062J95
         K13Y38C KC2013 12 28.05790 08 39 14.96 +16 41 57.3          20.7 RqEY062J95
         K13Y38C KC2013 12 28.24886 08 39 28.50 +16 49 11.6          20.5 RqEY062H36
         K13Y38C KC2013 12 28.26622 08 39 29.46 +16 49 51.2          20.4 RqEY062H36
         K13Y38C KC2013 12 28.28298 08 39 30.34 +16 50 29.8          20.5 RqEY062H36
         K13Y38C  C2013 12 28.40934 08 39 37.22 +16 55 18.2          20.6 RoEY062926
         K13Y38C  C2013 12 28.42373 08 39 37.95 +16 55 50.8          20.8 RoEY062926
         K13Y38C  C2013 12 28.43785 08 39 38.63 +16 56 22.0          20.9 RoEY062926
         K13Y38C KC2013 12 28.45842 08 39 39.67 +16 57 07.3          20.5 RoEY062291
         K13Y38C KC2013 12 28.46016 08 39 39.75 +16 57 11.1          20.5 RoEY062291
         K13Y38C KC2013 12 28.46190 08 39 39.84 +16 57 14.9          20.6 RoEY062291
         K13Y38C KC2013 12 29.03982 08 40 17.72 +17 18 33.7                qEY062J95
         K13Y38C KC2013 12 29.05887 08 40 18.65 +17 19 16.3          20.7 RqEY062J95
         K13Y38C KC2013 12 29.36022 08 40 37.16 +17 30 41.7          20.4 RoEY062291
         K13Y38C KC2013 12 29.36278 08 40 37.28 +17 30 47.8          20.3 RoEY062291
         K13Y38C KC2013 12 29.36525 08 40 37.40 +17 30 53.3          20.5 RoEY062291
         K13Y38C KC2013 12 30.12260 08 41 20.41 +17 58 50.9          20.4 VuEY062958
         K13Y38C KC2013 12 30.13163 08 41 20.98 +17 59 10.4          20.5 VuEY062958
         K13Y38C  C2013 12 30.14463 08 41 21.23 +17 59 34.4          20.0 VoEY062033
         K13Y38C KC2013 12 30.14975 08 41 21.71 +17 59 50.5          20.6 VuEY062958
         K13Y38C  C2013 12 30.15361 08 41 21.58 +17 59 52.9          19.9 VoEY062033
         K13Y38C  C2013 12 30.17303 08 41 22.56 +18 00 36.5          20.1 VoEY062033
         K13Y38C  C2013 12 30.18201 08 41 22.91 +18 00 55.1          20.1 VoEY062033
    
    Observer details:
    033 Karl Schwarzschild Observatory, Tautenburg.  Observer B. Stecklum.  1.34-m
        f/4 Schmidt + CCD.
    291 LPL/Spacewatch II.  Observer T. H. Bressi.  1.8-m f/2.7 reflector + CCD.
    691 Steward Observatory, Kitt Peak.  Observer T. H. Bressi.  0.9-m f/3
        reflector + CCD.
    926 Tenagra II Observatory.  Observers M. Schwartz, P. R. Holvorcem.  0.81-m
        f/7 Ritchey-Chretien + CCD.
    958 Observatoire de Dax.  Observers P. Dupouy, J. B. de Vanssay.  Measurer
        P. Dupouy.  0.43-m f/2.7 reflector + CCD.
    H36 Sandlot Observatory, Scranton.  Observer G. Hug.  0.56-m reflector + CCD.
    J95 Great Shefford.  Observer P. Birtwhistle.  0.40-m f/6.0 Schmidt-Cassegrain
        + CCD.
    
    Orbital elements:
    2013 YC38                                                Earth MOID = 0.1507 AU
    Epoch 2013 Nov. 4.0 TT = JDT 2456600.5                  MPC
    M 350.16136              (2000.0)            P               Q
    n   0.40898761     Peri.  329.23403     +0.28789928     -0.94957788
    a   1.7974740      Node   103.78968     +0.90259892     +0.22572761
    e   0.3751675      Incl.    7.34511     +0.32004562     +0.21759802
    P   2.41           H   22.6           G   0.15           U   6
    Residuals in seconds of arc
    131227 691  0.3-  0.3-    131228 H36  0.5+  0.0     131229 291  0.1-  0.4-
    131227 691  0.0   0.2+    131228 H36  0.6+  0.6+    131229 291  0.0   0.0
    131227 691  0.1-  0.2-    131228 926  0.5-  0.1-    131229 291  0.2+  0.1-
    131227 291  0.3+  0.4-    131228 926  0.0   0.4+    131230 958  1.5-  0.3+
    131227 291  0.2+  0.1+    131228 926  0.0   0.1+    131230 958  1.1+  0.1-
    131227 291  0.2+  0.3-    131228 291  0.0   0.1+    131230 033  0.7+  0.7+
    131228 J95  0.0   0.3+    131228 291  0.1-  0.1+    131230 958  0.3+  0.1+
    131228 J95  0.3+  0.2+    131228 291  0.0   0.0     131230 033  0.3-  0.5-
    131228 J95  0.2+  0.2-    131229 J95  0.1+  0.1-    131230 033  0.7+  0.6+
    131228 H36  0.0   0.1-    131229 J95  0.2-  0.3-    131230 033  0.4-  0.4-
    
    Ephemeris:
    2013 YC38                a,e,i = 1.80, 0.38, 7                   q = 1.1231
    Date    TT    R. A. (2000) Decl.     Delta      r     Elong.  Phase     V
    2013 11 30    07 39 35.4 +01 12 35   0.2031  1.1233   128.2    43.6    21.1
    ...
    2013 12 15    08 18 16.1 +08 43 37   0.1959  1.1356   137.1    36.2    20.8
    ...
    2013 12 23    08 32 40.5 +13 33 14   0.1988  1.1499   143.7    30.4    20.7
    ...
    2013 12 29    08 40 14.6 +17 17 28   0.2044  1.1638   149.3    25.6    20.7
    2013 12 30    08 41 13.9 +17 54 35   0.2056  1.1664   150.3    24.7    20.6
    2013 12 31    08 42 08.7 +18 31 30   0.2070  1.1690   151.2    23.9    20.6
    ...
    2014 01 06    08 46 07.4 +22 05 42   0.2172  1.1864   157.0    18.9    20.6
    ...
    2014 01 14    08 48 04.0 +26 18 33   0.2368  1.2130   164.0    12.9    20.6
    ...
    2014 01 29    08 45 52.7 +31 44 29   0.2934  1.2719   166.3    10.6    21.1
    
    A. U. Tomatic                (C) Copyright 2013 MPC           M.P.E.C. 2013-Y62
    

    Read MPEC 2013-Y61 Read MPEC 2013-Y63


    MPEC number:

    Enter an MPEC number in one of the following forms:

    • 1997-B01 (the full form)
    • J97B01 (the packed version of the full form)
    • B01 (the abbreviated form)